Location: Unspecified
(56.5167°N, 0.0000°E)
Time: 14:57:12
(UTC+02:00)

Resurs 1-4 Rocket - Visible Passes

Search period start: 22 July 2018 00:00
Search period end: 01 August 2018 00:00
Orbit: 800 x 814 km, 98.5° (Epoch: 21 July)

Date Brightness Start Highest point End Pass type
(mag) Time Alt. Az. Time Alt. Az. Time Alt. Az.
22 Jul 3.2 03:31:06 10° NNE 03:36:04 39° E 03:40:59 10° SSE visible
23 Jul 3.7 03:06:47 10° NE 03:11:15 27° E 03:15:39 10° SSE visible
23 Jul 2.3 04:46:16 10° NNE 04:51:33 68° WNW 04:56:47 10° SSW visible
24 Jul 4.2 02:42:43 10° NE 02:46:20 18° E 02:49:55 10° SE visible
24 Jul 2.2 04:21:38 10° NNE 04:26:59 85° ESE 04:32:17 10° SSW visible
25 Jul 4.5 02:19:17 10° ENE 02:21:20 12° E 02:23:20 10° ESE visible
25 Jul 2.6 03:57:05 10° NNE 04:02:20 58° ESE 04:07:32 10° S visible
26 Jul 3.1 03:32:37 10° NNE 03:37:36 40° E 03:42:32 10° SSE visible
27 Jul 3.7 03:08:18 10° NNE 03:12:47 27° E 03:17:14 10° SSE visible
27 Jul 2.3 04:47:48 10° NNE 04:53:04 66° WNW 04:58:17 10° SSW visible
28 Jul 4.1 02:44:12 10° NE 02:47:52 19° E 02:51:31 10° SE visible
28 Jul 2.2 04:23:10 10° NNE 04:28:30 87° ESE 04:33:47 10° SSW visible
29 Jul 4.4 02:20:41 10° NE 02:22:52 12° E 02:25:03 10° ESE visible
29 Jul 2.5 03:58:36 10° NNE 04:03:52 60° ESE 04:09:03 10° S visible
30 Jul 3.1 03:34:08 10° NNE 03:39:08 41° E 03:44:05 10° SSE visible
31 Jul 3.6 03:09:47 10° NNE 03:14:19 28° E 03:18:48 10° SSE visible
31 Jul 2.3 04:49:21 10° NNE 04:54:35 64° WNW 04:59:47 10° SSW visible
